Weather in Musiivka

Ukraine / Zaporizhia Region     46°59′09″N   34°40′57″E
temp.,
°C
wind,
m/s
gust,
m/s
humid.,
%
clouds,
%
prec.,
mm/h
press.,
hPa
HPBL,
m
2 march, tue
tue223:000nnw238431 0.0 103048
02:00−1nnw338616 0.0 103076
05:00−1nw23900 0.0 102974
08:00+1wnw46780 0.0 1030288
11:00+4w57580 0.0 1028934
14:00+5w796030 0.0 1025933
17:00+4wsw61268100 0.0 1022672
20:00+2wsw7157971 0.0 1022478
3 march, wed
wed323:00+3wnw6118498 0.0 1021568
02:00+2wnw6128298 0.0 1021608
05:00+1nw6138886 0.0 1021566
08:00+2nnw7118153 0.0 1024670
11:00+5nnw68620 0.0 1025996
14:00+7nnw79480 0.0 10251383
17:00+5nw48520 0.0 1025313
20:00+2nw33650 0.0 102739
4 march, thu
thu423:00+1w23740 0.0 102622
02:00+1wsw33790 0.0 102645
05:000sw35790 0.0 1024104
08:00+3sw610710 0.0 1023412
11:00+8sw810570 0.0 10211092
14:00+10sw810590 0.0 10191287
17:00+7sw7126842 0.0 1016793
20:00+5sw8167841 0.0 1016580
5 march, fri
fri523:00+4sw7158433 0.0 1015549
02:00+3sw6148817 0.0 1015501
05:00+3sw613920 0.0 1014374
08:00+5sw6118941 0.0 1014437
11:00+9sw6107499 0.0 1013598
14:00+12sw7106194 0.0 1012987
17:00+10ssw6116697 0.0 1011552
20:00+6sw4118655 0.0 1011397
6 march, sat
sat623:00+5sw4109527 0.0 1011327
02:00+4wsw339749 0.0 101277
05:00+4n599490 0.0 1013310
08:00+3n689495 0.3 1014377
11:00+1n71194100 0.8 1016558
14:00+4n7950100 0.8 10171232
17:00+2nnw7948100 0.0 10191312
20:000nnw61152100 0.0 1022938